TimeEST,TemperatureF,Dew PointF,Humidity,Sea Level PressureIn,VisibilityMPH,Wind Direction,Wind SpeedMPH,Gust SpeedMPH,PrecipitationIn,Events,Conditions,WindDirDegrees,DateUTC
12:00 AM,28.4,26.6,93,29.83,1.8,WSW,4.6,-,N/A,,Overcast,240,2013-02-05 05:00:00
12:07 AM,28.4,26.6,93,29.83,1.5,WSW,4.6,-,N/A,,Overcast,240,2013-02-05 05:07:00
12:53 AM,28.0,27.0,96,29.88,1.5,Calm,Calm,-,N/A,,Overcast,0,2013-02-05 05:53:00
1:08 AM,28.4,26.6,93,29.82,2.5,West,4.6,-,N/A,,Overcast,260,2013-02-05 06:08:00
1:44 AM,28.4,26.6,93,29.82,1.8,West,4.6,-,N/A,,Overcast,260,2013-02-05 06:44:00
1:51 AM,28.4,26.6,93,29.83,2.5,West,3.5,-,N/A,,Overcast,270,2013-02-05 06:51:00
1:53 AM,28.9,27.0,92,29.88,2.5,West,4.6,-,N/A,,Overcast,270,2013-02-05 06:53:00
2:12 AM,28.4,26.6,93,29.84,2.5,West,4.6,-,N/A,,Overcast,270,2013-02-05 07:12:00
2:39 AM,28.4,26.6,93,29.84,1.5,WNW,4.6,-,N/A,,Overcast,290,2013-02-05 07:39:00
2:53 AM,28.0,27.0,96,29.89,1.8,WNW,3.5,-,N/A,,Overcast,300,2013-02-05 07:53:00
3:14 AM,28.4,26.6,93,29.83,2.0,West,3.5,-,N/A,,Overcast,280,2013-02-05 08:14:00
3:35 AM,28.4,26.6,93,29.83,2.5,WNW,4.6,-,N/A,,Overcast,300,2013-02-05 08:35:00
3:53 AM,28.0,26.1,92,29.89,3.0,West,6.9,-,N/A,,Overcast,280,2013-02-05 08:53:00
4:53 AM,27.0,26.1,96,29.89,4.0,WNW,3.5,-,N/A,,Overcast,300,2013-02-05 09:53:00
5:53 AM,27.0,26.1,96,29.90,3.0,NW,3.5,-,N/A,,Overcast,310,2013-02-05 10:53:00
6:08 AM,26.6,26.6,100,29.84,2.5,Calm,Calm,-,N/A,,Overcast,0,2013-02-05 11:08:00
6:15 AM,26.6,26.6,100,29.84,2.0,North,3.5,-,N/A,,Overcast,360,2013-02-05 11:15:00
6:25 AM,26.6,26.6,100,29.84,1.5,Calm,Calm,-,N/A,,Overcast,0,2013-02-05 11:25:00
6:53 AM,27.0,26.1,96,29.90,1.0,Calm,Calm,-,N/A,,Overcast,0,2013-02-05 11:53:00
7:02 AM,26.6,26.6,100,29.85,0.8,Calm,Calm,-,N/A,,Overcast,0,2013-02-05 12:02:00
7:27 AM,26.6,26.6,100,29.85,1.0,Calm,Calm,-,N/A,,Overcast,0,2013-02-05 12:27:00
7:36 AM,26.6,26.6,100,29.84,0.8,ENE,3.5,-,N/A,,Overcast,70,2013-02-05 12:36:00
7:43 AM,26.6,26.6,100,29.84,0.5,Calm,Calm,-,N/A,Fog,Light Freezing Fog,0,2013-02-05 12:43:00
7:53 AM,27.0,26.1,96,29.90,0.2,East,3.5,-,N/A,Fog,Light Freezing Fog,90,2013-02-05 12:53:00
8:00 AM,26.6,26.6,100,29.85,0.2,Calm,Calm,-,N/A,Fog,Light Freezing Fog,0,2013-02-05 13:00:00
8:32 AM,26.6,26.6,100,29.84,0.2,East,4.6,-,N/A,Fog,Light Freezing Fog,80,2013-02-05 13:32:00
8:49 AM,26.6,26.6,100,29.85,0.2,Calm,Calm,-,N/A,Fog,Light Freezing Fog,0,2013-02-05 13:49:00
8:53 AM,27.0,26.1,96,29.91,0.2,Calm,Calm,-,N/A,Fog,Light Freezing Fog,0,2013-02-05 13:53:00
9:00 AM,26.6,26.6,100,29.85,0.2,Calm,Calm,-,N/A,Fog,Light Freezing Fog,0,2013-02-05 14:00:00
9:24 AM,26.6,26.6,100,29.86,0.2,Calm,Calm,-,N/A,Fog,Light Freezing Fog,0,2013-02-05 14:24:00
10:19 AM,28.4,26.6,93,29.86,0.8,Calm,Calm,-,N/A,,Overcast,0,2013-02-05 15:19:00
10:29 AM,28.4,26.6,93,29.86,1.0,Calm,Calm,-,N/A,,Overcast,0,2013-02-05 15:29:00
10:53 AM,28.9,27.0,92,29.91,1.2,Calm,Calm,-,N/A,,Overcast,0,2013-02-05 15:53:00
11:43 AM,28.4,28.4,100,29.85,1.5,Calm,Calm,-,N/A,,Overcast,0,2013-02-05 16:43:00
11:53 AM,28.9,28.0,96,29.90,1.8,West,3.5,-,N/A,,Overcast,260,2013-02-05 16:53:00
12:00 PM,28.4,28.4,100,29.85,2.0,Calm,Calm,-,N/A,,Overcast,0,2013-02-05 17:00:00
12:53 PM,30.0,28.0,92,29.87,3.0,Variable,3.5,-,N/A,,Overcast,0,2013-02-05 17:53:00
1:18 PM,30.2,28.4,93,29.81,5.0,WSW,6.9,-,N/A,,Overcast,250,2013-02-05 18:18:00
1:53 PM,30.0,28.0,92,29.85,5.0,West,6.9,-,N/A,,Overcast,260,2013-02-05 18:53:00
2:39 PM,30.2,28.4,93,29.81,9.0,West,9.2,17.3,N/A,,Overcast,260,2013-02-05 19:39:00
2:46 PM,30.2,26.6,86,29.81,10.0,West,16.1,20.7,N/A,,Overcast,260,2013-02-05 19:46:00
2:53 PM,30.9,26.1,82,29.86,10.0,WSW,13.8,-,N/A,,Overcast,250,2013-02-05 19:53:00
3:53 PM,32.0,24.1,73,29.88,10.0,WSW,15.0,23.0,N/A,,Mostly Cloudy,250,2013-02-05 20:53:00
4:27 PM,30.2,23.0,75,29.84,10.0,West,11.5,23.0,N/A,,Mostly Cloudy,270,2013-02-05 21:27:00
4:51 PM,30.2,21.2,69,29.84,10.0,West,11.5,17.3,N/A,,Mostly Cloudy,260,2013-02-05 21:51:00
4:53 PM,30.9,21.9,69,29.89,10.0,WSW,8.1,-,N/A,,Mostly Cloudy,250,2013-02-05 21:53:00
5:53 PM,30.0,19.9,66,29.89,10.0,WSW,8.1,-,N/A,,Overcast,240,2013-02-05 22:53:00
6:53 PM,28.9,21.9,75,29.92,4.0,WSW,11.5,-,0.00,Snow,Light Snow,240,2013-02-05 23:53:00
7:13 PM,28.4,23.0,80,29.88,2.0,WSW,11.5,-,0.00,Snow,Light Snow,250,2013-02-06 00:13:00
7:15 PM,28.4,23.0,80,29.88,1.8,West,9.2,-,0.00,Snow,Light Snow,260,2013-02-06 00:15:00
7:53 PM,27.0,25.0,92,29.94,1.0,WSW,4.6,-,0.01,Snow,Light Snow,250,2013-02-06 00:53:00
8:01 PM,26.6,24.8,93,29.89,0.8,WSW,4.6,-,0.00,Snow,Light Snow,240,2013-02-06 01:01:00
8:25 PM,26.6,26.6,100,29.90,1.0,SSW,3.5,-,0.01,Snow,Light Snow,210,2013-02-06 01:25:00
8:53 PM,27.0,26.1,96,29.96,0.8,SW,4.6,-,0.03,Snow,Light Snow,220,2013-02-06 01:53:00
9:06 PM,26.6,26.6,100,29.90,1.0,SSW,3.5,-,0.01,Snow,Light Snow,210,2013-02-06 02:06:00
9:27 PM,28.4,24.8,86,29.90,2.5,Calm,Calm,-,0.01,Snow,Light Snow,0,2013-02-06 02:27:00
9:35 PM,26.6,24.8,93,29.90,3.0,Calm,Calm,-,0.01,Snow,Light Snow,0,2013-02-06 02:35:00
9:53 PM,28.0,26.1,92,29.96,7.0,Calm,Calm,-,0.01,,Overcast,0,2013-02-06 02:53:00
10:32 PM,26.6,24.8,93,29.92,2.5,SSW,3.5,-,0.00,Snow,Light Snow,210,2013-02-06 03:32:00
10:38 PM,26.6,24.8,93,29.92,0.8,WSW,3.5,-,0.00,Snow,Light Snow,240,2013-02-06 03:38:00
10:42 PM,26.6,24.8,93,29.92,0.5,WSW,3.5,-,0.01,Fog-Snow,Snow,250,2013-02-06 03:42:00
10:53 PM,27.0,26.1,96,29.97,0.8,Calm,Calm,-,0.02,Snow,Light Snow,0,2013-02-06 03:53:00
10:57 PM,26.6,26.6,100,29.92,1.8,Calm,Calm,-,0.00,Snow,Light Snow,0,2013-02-06 03:57:00
11:04 PM,26.6,26.6,100,29.91,2.5,SW,3.5,-,0.00,Snow,Light Snow,220,2013-02-06 04:04:00
11:17 PM,26.6,26.6,100,29.92,3.0,WSW,3.5,-,0.00,Snow,Light Snow,250,2013-02-06 04:17:00
11:28 PM,26.6,26.6,100,29.92,3.0,Calm,Calm,-,0.00,,Overcast,0,2013-02-06 04:28:00
11:43 PM,26.6,26.6,100,29.92,5.0,West,4.6,-,0.00,,Overcast,260,2013-02-06 04:43:00
11:53 PM,27.0,25.0,92,29.98,6.0,WSW,4.6,-,0.00,,Overcast,250,2013-02-06 04:53:00